Fort Smith, AR

8:25 PM CDT on July 24, 2017 (GMT -0500)
Fort Smith Regional

Weather History for KFSM - October, 2012

Change the Weather History Date:

Sunday, October 14, 2012

  Actual Average Record
Temperature  
Mean Temperature 68 °F 63 °F  
Max Temperature 79 °F 76 °F 93 °F (2015)
Min Temperature 56 °F 51 °F 34 °F (1885)
Degree Days  
Heating Degree Days 0 4  
Month to date heating degree days 60 38  
Since 1 July heating degree days 60 55  
Cooling Degree Days 3 2  
Month to date cooling degree days 33 44  
Year to date cooling degree days 2825 2022  
Growing Degree Days 20 (Base 50)    
Moisture  
Dew Point 55 °F    
Average Humidity 63    
Maximum Humidity 90    
Minimum Humidity 35    
Precipitation  
Precipitation 0.00 in 0.14 in 1.13 in (1984)
Month to date precipitation 2.61 1.86  
Year to date precipitation 30.86 35.27  
Sea Level Pressure  
Sea Level Pressure 29.91 in    
Wind  
Wind Speed 8 mph (WSW)    
Max Wind Speed 21 mph    
Max Gust Speed 26 mph    
Visibility 10 miles    
Events Rain    
T = Trace of Precipitation, MM = Missing Value Source: NWS Daily Summary

Daily Weather History Graph

Daily Weather History Graph

Search for Another Location

Airport or City:

Trip Planner

Search our weather history database for the weather conditions in past years. The results will help you decide how hot, cold, wet, or windy it might be!

Date:

Astronomy

Oct. 14, 2012 Rise Set
Actual Time 7:23 AM CDT 6:42 PM CDT
Civil Twilight 6:57 AM CDT 7:08 PM CDT
Nautical Twilight 6:28 AM CDT 7:37 PM CDT
Astronomical Twilight 5:58 AM CDT 8:07 PM CDT
Moon 6:23 AM CDT (10/14) 6:03 PM CDT (10/14)
Length of Visible Light 12h 10m
Length of Day
11h 19m
Waning Crescent, 1% of the Moon is Illuminated
Oct 14
Waning Crescent
Oct 15
New
Oct 21
First Quarter
Oct 29
Full
Nov 6
Last Quarter

Hourly Weather History & Observations

Time (CDT) Temp. Dew Point Humidity Pressure Visibility Wind Dir Wind Speed Gust Speed Precip Events Conditions
12:13 AM 66.2 °F 62.6 °F 88% 29.79 in 8.0 mi South 4.6 mph - 0.05 in Rain Light Rain
12:53 AM 66.9 °F 63.0 °F 87% 29.78 in 10.0 mi SSW 6.9 mph 16.1 mph 0.06 in   Partly Cloudy
1:53 AM 68.0 °F 62.1 °F 81% 29.76 in 10.0 mi SW 5.8 mph - N/A   Clear
2:53 AM 66.9 °F 62.1 °F 84% 29.77 in 10.0 mi Calm Calm - N/A   Clear
3:53 AM 66.0 °F 62.1 °F 87% 29.76 in 10.0 mi WSW 3.5 mph - N/A   Clear
4:53 AM 64.0 °F 61.0 °F 90% 29.77 in 10.0 mi WSW 5.8 mph - N/A   Clear
5:53 AM 64.0 °F 59.0 °F 84% 29.81 in 10.0 mi WSW 6.9 mph - N/A   Clear
6:53 AM 62.1 °F 57.9 °F 86% 29.82 in 10.0 mi SW 6.9 mph - N/A   Clear
7:53 AM 61.0 °F 57.0 °F 87% 29.85 in 10.0 mi WSW 9.2 mph - N/A   Clear
8:53 AM 64.9 °F 57.0 °F 75% 29.88 in 10.0 mi WSW 15.0 mph - N/A   Clear
9:53 AM 69.1 °F 53.1 °F 57% 29.92 in 10.0 mi West 16.1 mph - N/A   Clear
10:53 AM 70.0 °F 53.1 °F 55% 29.95 in 10.0 mi West 15.0 mph 20.7 mph N/A   Clear
11:53 AM 72.0 °F 54.0 °F 53% 29.98 in 10.0 mi WSW 18.4 mph - N/A   Clear
12:53 PM 75.0 °F 54.0 °F 48% 29.99 in 10.0 mi West 13.8 mph 21.9 mph N/A   Clear
1:53 PM 75.9 °F 53.1 °F 45% 29.97 in 10.0 mi West 12.7 mph 20.7 mph N/A   Clear
2:53 PM 78.8 °F 51.8 °F 39% 29.98 in 10.0 mi WNW 17.3 mph - N/A   Clear
3:53 PM 79.0 °F 52.0 °F 39% 29.96 in 10.0 mi West 13.8 mph - N/A   Clear
4:53 PM 79.0 °F 48.9 °F 35% 29.97 in 10.0 mi NW 9.2 mph - N/A   Clear
5:53 PM 75.9 °F 48.0 °F 37% 29.98 in 10.0 mi WNW 9.2 mph - N/A   Clear
6:53 PM 72.0 °F 48.9 °F 44% 30.00 in 10.0 mi WNW 6.9 mph - N/A   Clear
7:53 PM 64.9 °F 51.1 °F 61% 30.01 in 10.0 mi WNW 5.8 mph - N/A   Clear
8:53 PM 63.0 °F 53.1 °F 70% 30.03 in 10.0 mi Calm Calm - N/A   Clear
9:53 PM 62.1 °F 50.0 °F 65% 30.03 in 10.0 mi West 3.5 mph - N/A   Clear
10:53 PM 60.1 °F 50.0 °F 69% 30.05 in 10.0 mi WSW 3.5 mph - N/A   Clear
11:53 PM 57.0 °F 50.0 °F 77% 30.06 in 10.0 mi Calm Calm - N/A   Clear